#timestamp,LO_Frequency,Hit,StdDev 
1571058015.4,286047002.0,N
1571058035.2,286047003.8,Y
1571058055.0,286046998.2,P
1571058055.9,286046998.2,N
1571058075.8,286046998.3,N
1571058095.6,286046998.6,N
1571058115.4,286047002.5,N
1571058135.3,286047001.8,N
1571058155.1,286047002.5,N
1571058175.9,286047000.1,N
1571058195.7,286046998.5,N
1571058215.5,286047001.2,N
1571058235.4,286047000.5,N
1571058255.2,286046998.3,N
1571058275.0,286047000.0,N
1571058275.9,286047000.0,N
1571058295.8,286047002.4,N
1571058315.6,286047001.4,N
1571058335.5,286047001.4,N
1571058355.3,286047002.8,N
1571058375.1,286047002.1,N
1571058395.9,286047004.4,N
1571058415.7,286047003.0,N
1571058435.5,286047005.1,N
1571058455.4,286047005.3,N
1571058475.2,286047005.9,N
1571058495.1,286047006.6,N
1571058496.0,286047006.6,N
1571058515.8,286047005.9,N
1571058535.6,286047004.1,N
1571058555.5,286047004.2,N
1571058575.3,286047003.4,N
1571058595.2,286047005.8,N
1571058615.9,286047003.0,N
1571058635.7,286047004.7,N
1571058655.6,286047006.4,N
1571058675.4,286047006.5,N
1571058695.2,286047008.4,Y
1571058715.1,286047005.8,P
1571058716.0,286047005.8,P
1571058735.8,286047005.5,P
1571058755.7,286047005.0,Y
1571058775.5,286047002.4,P
1571058795.3,286047001.2,N
1571058815.2,286046999.6,N
1571058835.0,286046997.8,N
1571058835.9,286046997.8,N
1571058855.8,286046998.6,N
1571058875.6,286046999.0,N
1571058895.4,286046997.2,N
1571058915.3,286046997.1,N
1571058935.1,286046998.6,N
1571058955.9,286046999.4,N
1571058975.7,286047000.3,N
1571058995.5,286047000.9,N
1571059015.4,286047001.1,N
1571059035.2,286047001.9,N
1571059055.0,286047001.9,N
1571059055.9,286047001.9,N
1571059075.8,286047002.6,N
1571059095.6,286047002.7,N
1571059115.5,286047000.4,N
1571059135.3,286047002.1,N
1571059155.1,286047002.3,N
1571059175.9,286047002.3,N
1571059195.7,286047000.4,N
1571059215.5,286047000.6,N
1571059235.4,286046999.7,N
1571059255.2,286047002.3,N
1571059275.1,286046999.8,N
1571059276.0,286046999.8,N
1571059295.8,286046998.8,N
1571059315.6,286046998.9,N
1571059335.5,286046998.2,N
1571059355.3,286046998.6,N
1571059375.1,286046998.2,N
1571059395.9,286047000.1,N
1571059415.7,286047002.2,N
1571059435.6,286047001.8,N
1571059455.4,286046999.8,N
1571059475.2,286047002.4,N
1571059495.1,286047000.2,N
1571059496.0,286047000.2,N
1571059515.8,286047003.2,N
1571059535.7,286047001.3,N
1571059555.5,286047003.6,N
1571059575.3,286047003.8,N
1571059595.2,286047003.2,N
1571059615.0,286047004.4,N
1571059615.9,286047004.4,N
1571059635.7,286047002.5,N
1571059655.6,286046999.8,N
1571059675.4,286047000.7,N
1571059695.3,286046999.8,N
1571059715.1,286047000.2,N
1571059735.8,286047001.7,N
1571059755.7,286047004.3,N
1571059775.5,286047001.3,N
1571059795.4,286047003.5,N
1571059815.2,286047005.9,Y
1571059835.0,286047001.8,P
1571059835.9,286047001.8,P
1571059855.8,286047002.7,P
1571059875.6,286047001.9,Y
1571059895.4,286047000.6,P
1571059915.3,286047000.2,N
1571059935.1,286047000.5,N
1571059955.9,286047000.6,N
1571059975.7,286047001.2,N
1571059995.5,286047000.8,N
1571060015.4,286047000.5,N
1571060035.2,286047002.7,Y
1571060055.1,286047000.9,P
1571060056.0,286047000.9,P
1571060075.8,286046999.0,P
1571060095.6,286046999.1,N
1571060115.5,286046998.5,N
1571060135.3,286046998.8,N
1571060155.1,286046998.8,N
1571060175.9,286046998.7,N
1571060195.7,286046998.9,N
1571060215.6,286046999.0,N
1571060235.4,286046999.2,N
1571060255.2,286046999.4,N
1571060275.1,286046999.2,N
1571060276.0,286046999.2,N
1571060295.8,286046999.3,N
1571060315.6,286046998.1,N
1571060335.5,286046996.9,Y
1571060355.3,286047000.4,P
1571060375.2,286047000.2,N
1571060395.9,286047001.0,N
1571060415.7,286047002.8,Y
1571060435.6,286047002.3,P
1571060455.4,286047001.9,N
1571060475.3,286047002.8,P
1571060495.1,286047002.3,N
1571060496.0,286047002.3,N
1571060515.8,286047002.6,Y
1571060535.7,286046998.2,P
1571060555.5,286047001.2,N
1571060575.3,286047000.6,N
1571060595.2,286046998.3,N
1571060615.0,286047001.1,N
1571060615.9,286047001.1,N
1571060635.8,286046996.8,N
1571060655.6,286046998.5,N
1571060675.4,286047000.8,N
1571060695.3,286046999.2,N
1571060715.1,286046996.6,N
1571060735.9,286046996.6,N
1571060755.7,286047000.7,N
1571060775.5,286046997.0,N
1571060795.4,286046996.7,N
1571060815.2,286046998.9,N
1571060835.0,286047000.0,N
1571060835.9,286047000.0,N
1571060855.8,286046998.6,N
1571060875.6,286046998.3,N
1571060895.5,286047000.8,N
1571060915.3,286047000.0,N
1571060935.1,286047001.0,N
1571060955.9,286047000.7,N
1571060975.7,286046998.1,N
1571060995.5,286047000.4,N
1571061015.4,286047002.7,N
1571061035.2,286047002.4,N
1571061055.1,286046999.7,N
1571061056.0,286046999.7,N
1571061075.8,286047002.7,N
1571061095.6,286046998.6,N
1571061115.5,286047001.0,N
1571061135.3,286047002.8,N
1571061155.1,286047000.4,N
1571061175.9,286047000.7,N
1571061195.7,286047000.5,N
1571061215.6,286046999.9,N
1571061235.4,286047000.8,N
1571061255.2,286047001.9,N
1571061275.1,286047000.2,N
1571061276.0,286047000.2,N
1571061295.8,286046999.8,N
1571061315.7,286047000.8,N
1571061335.5,286046998.2,N
1571061355.3,286047000.9,N
1571061375.2,286047000.5,N
1571061395.0,286047000.6,N
1571061395.9,286047000.6,N
1571061415.7,286047000.5,N
1571061435.6,286047001.5,N
1571061455.4,286047004.3,Y
1571061475.3,286047002.2,P
1571061495.1,286047004.4,P
1571061496.0,286047004.4,N
1571061515.8,286047001.4,N
1571061535.7,286047001.3,N
1571061555.5,286047003.7,N
1571061575.4,286047002.9,N
1571061595.2,286047002.1,N
